Tracking 29892 objects as of 21-Nov-2024
HD Live streaming from Space Station
objects crossing your sky now

OBJECT D

Track OBJECT D now!
10-day predictions


NORAD ID: 59920
Int'l Code: 2024-105D
Perigee: 522.7 km
Apogee: 544.7 km
Inclination: 97.6 °
Period: 95.2 minutes
Semi major axis: 6904 km
RCS: Unknown
Launch date: May 30, 2024
Source: People's Republic of China (PRC)
Launch site: Jiuquan Satellite Launch Center, China (JSC)
Your satellite tracking list
Your tracking list is empty




NASA's NSSDC Master Catalog

Two Line Element Set (TLE):
1 59920U 24105D   24326.13400067  .00009046  00000-0  51220-3 0  9997
2 59920  97.6057 331.6084 0015942  53.9477 306.3228 15.13152173 26306
Source of the keplerian elements: AFSPC